Hourly Data Report for September 24, 2017

All times are specified in Local Standard Time (LST). Add 1 hour to adjust for Daylight Saving Time where and when it is observed.

CORAL HARBOUR A
NUNAVUT

64°11'36.000" N
83°21'34.000" W
62.20 m
2301002
71915
YZS

Download Data

Hourly Data (September 2017)
Hourly Data Report for September 24, 2017
Temp Definition
°C
Dew Point Temp Definition
°C
Rel Hum Definition
%
Wind Dir Definition
10's deg

Wind Spd Definition
km/h
Visibility Definition
km
Stn Press Definition
kPa
Hmdx Definition


Wind Chill Definition


Weather Definition


TIME
00:00 Legend Double Dagger -4.2 -5.6 90 32 15 24.1 101.24   -10 LegendNANA
01:00 Legend Double Dagger -3.1 -6.1 80 34 7 24.1 101.22   -6 Clear
02:00 Legend Double Dagger -2.5 -5.5 80 31 13 24.1 101.19   -7 LegendNANA
03:00 Legend Double Dagger -2.8 -4.9 86 3 10 24.1 101.20   -7 LegendNANA
04:00 Legend Double Dagger -2.8 -4.8 86 4 20 24.1 101.18   -9 Clear
05:00 Legend Double Dagger -3.3 -5.2 87 36 16 24.1 101.20   -9 LegendNANA
06:00 Legend Double Dagger -3.8 -5.1 90 17 14 24.1 101.24   -9 LegendNANA
07:00 Legend Double Dagger -3.8 -5.6 88 4 18 24.1 101.20   -10 Clear
08:00 Legend Double Dagger -2.8 -4.8 86 34 13 24.1 101.22   -7 LegendNANA
09:00 Legend Double Dagger -1.3 -4.4 80 2 15 24.1 101.20   -6 LegendNANA
10:00 Legend Double Dagger -0.3 -4.2 75 4 21 24.1 101.21   -6 Mainly Clear
11:00 Legend Double Dagger 0.5 -4.1 71 33 15 24.1 101.20     LegendNANA
12:00 Legend Double Dagger 1.3 -4.6 65 32 20 24.1 101.18     LegendNANA
13:00 Legend Double Dagger 2.2 -4.9 59 32 25 24.1 101.14     Clear
14:00 Legend Double Dagger 2.7 -5.3 56 34 20 24.1 101.14     LegendNANA
15:00 Legend Double Dagger 2.9 -5.1 56 3 18 24.1 101.13     LegendNANA
16:00 Legend Double Dagger 2.3 -5.4 57 34 19 24.1 101.12     Mainly Clear
17:00 Legend Double Dagger 1.4 -5.1 62 34 17 24.1 101.11     LegendNANA
18:00 Legend Double Dagger -0.2 -4.7 72 1 20 24.1 101.09   -5 LegendNANA
19:00 Legend Double Dagger -2.2 -4.8 82 33 10 24.1 101.13   -6 Mainly Clear
20:00 Legend Double Dagger -3.4 -5.5 85 3 11 24.1 101.12   -8 LegendNANA
21:00 Legend Double Dagger -3.5 -5.7 84 2 19 24.1 101.08   -9 LegendNANA
22:00 Legend Double Dagger -3.8 -6.0 85 2 14 24.1 101.07   -9 Clear
23:00 Legend Double Dagger -4.6 -6.1 89 30 10 24.1 101.07   -9 LegendNANA

Notes on Data Quality.

Legend

  • E = Estimated
  • M = Missing
  • NA = Not Available
  • ‡ = Partner data that is not subject to review by the National Climate Archives
Date modified: